| time (UTC) | temp F | wind direction | speed MPH | gust MPH | rain 1hr in | rain 24hr in | rain mn in | humidity % | barometer mb |
| 20260507163040 | 50 | 332 | 5.0 | 9.0 | 0.00 | 0.00 | 0.00 | 46 | 978.8 |
| 20260507162540 | 50 | 255 | 4.0 | 7.0 | 0.00 | 0.00 | 0.00 | 45 | 978.9 |
| 20260507161518 | 50 | 310 | 4.0 | 6.0 | 0.00 | 0.00 | 0.00 | 46 | 978.9 |
| 20260507161018 | 50 | 326 | 4.0 | 6.0 | 0.00 | 0.00 | 0.00 | 46 | 978.9 |
| 20260507160517 | 50 | 260 | 4.0 | 7.0 | 0.00 | 0.00 | 0.00 | 46 | 978.9 |
| 20260507160017 | 50 | 255 | 7.0 | 8.0 | 0.00 | 0.00 | 0.00 | 45 | 979.0 |
| 20260507155517 | 50 | 279 | 6.0 | 7.0 | 0.00 | 0.00 | 0.00 | 44 | 979.0 |
| 20260507155017 | 50 | 312 | 5.0 | 8.0 | 0.00 | 0.00 | 0.00 | 45 | 979.0 |
| 20260507154517 | 51 | 295 | 6.0 | 9.0 | 0.00 | 0.00 | 0.00 | 44 | 979.0 |
| 20260507154016 | 51 | 281 | 6.0 | 10.0 | 0.00 | 0.00 | 0.00 | 44 | 979.0 |
| 20260507153516 | 50 | 261 | 6.0 | 8.0 | 0.00 | 0.00 | 0.00 | 45 | 979.0 |
| 20260507153016 | 50 | 343 | 5.0 | 7.0 | 0.00 | 0.00 | 0.00 | 44 | 979.0 |
| 20260507152516 | 50 | 279 | 6.0 | 12.0 | 0.00 | 0.00 | 0.00 | 45 | 979.0 |
| 20260507152016 | 51 | 315 | 6.0 | 8.0 | 0.00 | 0.00 | 0.00 | 46 | 979.0 |
| 20260507150955 | 50 | 309 | 3.0 | 5.0 | 0.00 | 0.00 | 0.00 | 48 | 979.0 |
| 20260507150454 | 49 | 299 | 6.0 | 8.0 | 0.00 | 0.00 | 0.00 | 49 | 979.1 |
| 20260507145954 | 50 | 265 | 4.0 | 7.0 | 0.00 | 0.00 | 0.00 | 47 | 979.1 |
| 20260507145454 | 49 | 237 | 2.0 | 4.0 | 0.00 | 0.00 | 0.00 | 48 | 979.1 |
| 20260507144953 | 49 | 260 | 4.0 | 7.0 | 0.00 | 0.00 | 0.00 | 49 | 979.1 |
| 20260507144453 | 49 | 326 | 6.0 | 9.0 | 0.00 | 0.00 | 0.00 | 47 | 979.1 |
| 20260507143431 | 48 | 28 | 3.0 | 6.0 | 0.00 | 0.00 | 0.00 | 53 | 979.3 |
| 20260507142931 | 48 | 340 | 4.0 | 7.0 | 0.00 | 0.00 | 0.00 | 55 | 979.3 |
| 20260507142431 | 48 | 14 | 1.0 | 3.0 | 0.00 | 0.00 | 0.00 | 54 | 979.4 |
| 20260507141931 | 48 | 304 | 5.0 | 8.0 | 0.00 | 0.00 | 0.00 | 55 | 979.4 |
| 20260507141431 | 48 | 285 | 3.0 | 4.0 | 0.00 | 0.00 | 0.00 | 58 | 979.5 |
| 20260507140931 | 47 | 22 | 3.0 | 5.0 | 0.00 | 0.00 | 0.00 | 59 | 979.5 |
| 20260507135909 | 47 | 20 | 5.0 | 7.0 | 0.00 | 0.00 | 0.00 | 58 | 979.6 |
| 20260507135409 | 47 | 341 | 4.0 | 6.0 | 0.00 | 0.00 | 0.00 | 58 | 979.6 |
| 20260507134909 | 47 | 305 | 4.0 | 7.0 | 0.00 | 0.00 | 0.00 | 59 | 979.6 |
| 20260507134408 | 46 | 353 | 4.0 | 5.0 | 0.00 | 0.00 | 0.00 | 60 | 979.6 |
| 20260507133908 | 46 | 347 | 3.0 | 5.0 | 0.00 | 0.00 | 0.00 | 60 | 979.7 |
| 20260507132325 | 45 | 259 | 5.0 | 6.0 | 0.00 | 0.00 | 0.00 | 64 | 979.8 |
| 20260507131825 | 45 | 240 | 2.0 | 4.0 | 0.00 | 0.00 | 0.00 | 64 | 979.8 |
| 20260507131324 | 44 | 191 | 3.0 | 4.0 | 0.00 | 0.00 | 0.00 | 65 | 979.8 |
| 20260507130823 | 43 | 263 | 3.0 | 3.0 | 0.00 | 0.00 | 0.00 | 66 | 979.8 |
| 20260507130323 | 43 | 235 | 3.0 | 3.0 | 0.00 | 0.00 | 0.00 | 66 | 979.9 |
| 20260507125823 | 43 | 240 | 2.0 | 3.0 | 0.00 | 0.00 | 0.00 | 67 | 979.9 |
| 20260507125323 | 42 | 230 | 2.0 | 2.0 | 0.00 | 0.00 | 0.00 | 67 | 979.8 |
| 20260507124823 | 42 | 257 | 2.0 | 3.0 | 0.00 | 0.00 | 0.00 | 68 | 979.8 |
| 20260507124322 | 42 | 188 | 1.0 | 2.0 | 0.00 | 0.00 | 0.00 | 69 | 979.9 |
| 20260507123822 | 41 | 249 | 2.0 | 3.0 | 0.00 | 0.00 | 0.00 | 69 | 979.9 |
| 20260507123322 | 41 | 236 | 1.0 | 2.0 | 0.00 | 0.00 | 0.00 | 70 | 979.8 |
| 20260507122822 | 40 | 215 | 1.0 | 2.0 | 0.00 | 0.00 | 0.00 | 70 | 979.8 |
| 20260507122322 | 40 | 195 | 2.0 | 3.0 | 0.00 | 0.00 | 0.00 | 70 | 979.9 |
| 20260507121823 | 40 | 0 | 0.0 | 0.0 | 0.00 | 0.00 | 0.00 | 72 | 979.9 |
| 20260507121322 | 40 | 144 | 3.0 | 4.0 | 0.00 | 0.00 | 0.00 | 71 | 979.9 |
| 20260507120822 | 39 | 197 | 3.0 | 3.0 | 0.00 | 0.00 | 0.00 | 71 | 979.9 |
| 20260507115800 | 39 | 208 | 2.0 | 3.0 | 0.00 | 0.00 | 0.00 | 71 | 979.9 |
| 20260507115300 | 39 | 177 | 2.0 | 3.0 | 0.00 | 0.00 | 0.00 | 72 | 979.8 |
| 20260507114800 | 39 | 184 | 2.0 | 3.0 | 0.00 | 0.00 | 0.00 | 71 | 979.7 |
| 20260507113739 | 38 | 151 | 3.0 | 4.0 | 0.00 | 0.00 | 0.00 | 72 | 979.7 |
| 20260507113239 | 38 | 142 | 2.0 | 3.0 | 0.00 | 0.00 | 0.00 | 72 | 979.6 |
| 20260507112739 | 38 | 150 | 1.0 | 2.0 | 0.00 | 0.00 | 0.00 | 73 | 979.6 |
| 20260507112238 | 38 | 191 | 2.0 | 3.0 | 0.00 | 0.00 | 0.00 | 72 | 979.6 |
| 20260507111217 | 38 | 193 | 2.0 | 3.0 | 0.00 | 0.00 | 0.00 | 72 | 979.5 |
| 20260507110717 | 37 | 175 | 3.0 | 4.0 | 0.00 | 0.00 | 0.00 | 72 | 979.5 |
| 20260507110217 | 37 | 177 | 2.0 | 3.0 | 0.00 | 0.00 | 0.00 | 72 | 979.5 |
| 20260507105716 | 36 | 183 | 3.0 | 4.0 | 0.00 | 0.00 | 0.00 | 73 | 979.5 |
| 20260507105216 | 35 | 186 | 3.0 | 4.0 | 0.00 | 0.00 | 0.00 | 74 | 979.4 |
| 20260507104716 | 35 | 203 | 2.0 | 2.0 | 0.00 | 0.00 | 0.00 | 75 | 979.5 |
| 20260507103655 | 34 | 190 | 2.0 | 3.0 | 0.00 | 0.00 | 0.00 | 77 | 979.5 |
| 20260507103155 | 34 | 215 | 1.0 | 2.0 | 0.00 | 0.00 | 0.00 | 77 | 979.5 |
| 20260507102133 | 35 | 214 | 1.0 | 2.0 | 0.00 | 0.00 | 0.00 | 76 | 979.5 |
| 20260507101633 | 35 | 171 | 1.0 | 2.0 | 0.00 | 0.00 | 0.00 | 75 | 979.5 |
| 20260507100612 | 36 | 249 | 2.0 | 3.0 | 0.00 | 0.00 | 0.00 | 74 | 979.4 |
| 20260507100112 | 36 | 141 | 3.0 | 4.0 | 0.00 | 0.00 | 0.00 | 74 | 979.4 |
| 20260507095051 | 36 | 225 | 1.0 | 2.0 | 0.00 | 0.00 | 0.00 | 74 | 979.4 |
| 20260507094550 | 36 | 190 | 1.0 | 3.0 | 0.00 | 0.00 | 0.00 | 74 | 979.4 |
| 20260507094050 | 36 | 0 | 0.0 | 0.0 | 0.00 | 0.00 | 0.00 | 74 | 979.4 |
| 20260507093550 | 36 | 140 | 1.0 | 1.0 | 0.00 | 0.00 | 0.00 | 75 | 979.4 |
| 20260507093049 | 36 | 188 | 1.0 | 2.0 | 0.00 | 0.00 | 0.00 | 75 | 979.5 |
| 20260507092549 | 36 | 183 | 1.0 | 3.0 | 0.00 | 0.00 | 0.00 | 75 | 979.5 |
| 20260507092048 | 36 | 216 | 2.0 | 3.0 | 0.00 | 0.00 | 0.00 | 75 | 979.5 |
| 20260507091548 | 36 | 216 | 2.0 | 2.0 | 0.00 | 0.00 | 0.00 | 74 | 979.5 |
| 20260507091048 | 36 | 211 | 1.0 | 2.0 | 0.00 | 0.00 | 0.00 | 75 | 979.5 |
| 20260507090548 | 37 | 0 | 0.0 | 0.0 | 0.00 | 0.00 | 0.00 | 74 | 979.6 |
| 20260507085527 | 37 | 154 | 1.0 | 1.0 | 0.00 | 0.00 | 0.00 | 73 | 979.7 |
| 20260507085027 | 38 | 197 | 2.0 | 3.0 | 0.00 | 0.00 | 0.00 | 73 | 979.8 |
| 20260507084526 | 38 | 164 | 1.0 | 2.0 | 0.00 | 0.00 | 0.00 | 73 | 979.7 |
| 20260507084026 | 38 | 0 | 0.0 | 0.0 | 0.00 | 0.00 | 0.00 | 73 | 979.7 |
| 20260507083005 | 39 | 42 | 1.0 | 2.0 | 0.00 | 0.00 | 0.00 | 73 | 979.8 |
| 20260507081944 | 39 | 0 | 0.0 | 0.0 | 0.00 | 0.00 | 0.00 | 73 | 979.6 |
| 20260507081444 | 39 | 120 | 0.0 | 1.0 | 0.00 | 0.00 | 0.00 | 73 | 979.6 |
| 20260507080943 | 39 | 154 | 1.0 | 2.0 | 0.00 | 0.00 | 0.00 | 74 | 979.6 |
| 20260507080443 | 39 | 115 | 1.0 | 3.0 | 0.00 | 0.00 | 0.00 | 75 | 979.8 |
| 20260507075943 | 39 | 231 | 1.0 | 1.0 | 0.00 | 0.00 | 0.00 | 75 | 979.7 |
| 20260507074400 | 40 | 0 | 0.0 | 0.0 | 0.00 | 0.00 | 0.00 | 73 | 979.7 |
| 20260507073900 | 41 | 0 | 0.0 | 0.0 | 0.00 | 0.00 | 0.00 | 73 | 979.7 |
| 20260507073400 | 41 | 0 | 0.0 | 0.0 | 0.00 | 0.00 | 0.00 | 73 | 979.7 |
| 20260507072859 | 41 | 0 | 0.0 | 0.0 | 0.00 | 0.00 | 0.00 | 72 | 979.7 |
| 20260507072359 | 41 | 286 | 1.0 | 2.0 | 0.00 | 0.00 | 0.00 | 72 | 979.7 |
| 20260507071859 | 41 | 0 | 0.0 | 0.0 | 0.00 | 0.00 | 0.00 | 71 | 979.7 |
| 20260507071358 | 41 | 333 | 2.0 | 4.0 | 0.00 | 0.00 | 0.00 | 71 | 979.8 |
| 20260507070858 | 41 | 325 | 2.0 | 3.0 | 0.00 | 0.00 | 0.00 | 71 | 979.7 |
| 20260507070358 | 41 | 330 | 2.0 | 2.0 | 0.00 | 0.00 | 0.00 | 71 | 979.7 |
| 20260507065858 | 41 | 0 | 0.0 | 0.0 | 0.00 | 0.00 | 0.00 | 71 | 979.8 |
| 20260507065358 | 41 | 338 | 2.0 | 3.0 | 0.00 | 0.00 | 0.00 | 70 | 979.8 |
| 20260507064856 | 41 | 335 | 2.0 | 3.0 | 0.00 | 0.00 | 0.00 | 70 | 979.8 |
| 20260507064356 | 42 | 342 | 2.0 | 4.0 | 0.00 | 0.00 | 0.00 | 70 | 979.7 |
| 20260507063855 | 42 | 352 | 3.0 | 5.0 | 0.00 | 0.00 | 0.00 | 70 | 979.7 |
| 20260507063355 | 42 | 0 | 0.0 | 0.0 | 0.00 | 0.00 | 0.00 | 70 | 979.7 |
| 20260507062855 | 42 | 342 | 3.0 | 5.0 | 0.00 | 0.00 | 0.00 | 69 | 979.7 |
| 20260507061834 | 42 | 343 | 2.0 | 3.0 | 0.00 | 0.00 | 0.00 | 70 | 979.5 |
| 20260507061334 | 43 | 288 | 2.0 | 2.0 | 0.00 | 0.00 | 0.00 | 70 | 979.5 |
| 20260507060833 | 43 | 270 | 2.0 | 2.0 | 0.00 | 0.00 | 0.00 | 70 | 979.5 |
| 20260507060333 | 43 | 256 | 2.0 | 3.0 | 0.00 | 0.00 | 0.00 | 69 | 979.4 |
| 20260507055311 | 43 | 248 | 3.0 | 5.0 | 0.00 | 0.00 | 0.00 | 69 | 979.4 |
| 20260507054811 | 42 | 262 | 5.0 | 7.0 | 0.00 | 0.00 | 0.00 | 70 | 979.5 |
| 20260507054311 | 42 | 260 | 2.0 | 4.0 | 0.00 | 0.00 | 0.00 | 70 | 979.6 |
| 20260507053811 | 42 | 234 | 1.0 | 3.0 | 0.00 | 0.00 | 0.00 | 70 | 979.6 |
| 20260507053311 | 43 | 245 | 3.0 | 6.0 | 0.00 | 0.00 | 0.00 | 69 | 979.6 |
| 20260507052811 | 42 | 241 | 1.0 | 2.0 | 0.00 | 0.00 | 0.00 | 69 | 979.7 |
| 20260507052310 | 42 | 236 | 3.0 | 5.0 | 0.00 | 0.00 | 0.00 | 69 | 979.8 |
| 20260507051810 | 42 | 191 | 2.0 | 4.0 | 0.00 | 0.00 | 0.00 | 69 | 979.8 |
| 20260507050750 | 42 | 254 | 2.0 | 3.0 | 0.00 | 0.00 | 0.00 | 67 | 979.9 |
| 20260507050248 | 42 | 209 | 1.0 | 3.0 | 0.00 | 0.00 | 0.00 | 67 | 979.9 |
| 20260507045748 | 42 | 231 | 3.0 | 6.0 | 0.00 | 0.00 | 0.00 | 66 | 979.9 |
| 20260507045249 | 43 | 194 | 1.0 | 1.0 | 0.00 | 0.00 | 0.00 | 66 | 979.9 |
| 20260507044748 | 43 | 240 | 2.0 | 5.0 | 0.00 | 0.00 | 0.00 | 65 | 980.0 |
| 20260507044248 | 43 | 213 | 1.0 | 2.0 | 0.00 | 0.00 | 0.00 | 64 | 980.0 |
| 20260507043747 | 43 | 246 | 3.0 | 5.0 | 0.00 | 0.00 | 0.00 | 63 | 980.0 |
| 20260507043247 | 43 | 215 | 2.0 | 2.0 | 0.00 | 0.00 | 0.00 | 62 | 980.1 |
| 20260507042225 | 42 | 237 | 2.0 | 2.0 | 0.00 | 0.00 | 0.00 | 63 | 980.1 |
| 20260507041724 | 42 | 228 | 2.0 | 3.0 | 0.00 | 0.00 | 0.00 | 64 | 980.2 |
| 20260507041224 | 42 | 201 | 1.0 | 2.0 | 0.00 | 0.00 | 0.00 | 66 | 980.1 |
| 20260507040202 | 42 | 208 | 1.0 | 2.0 | 0.00 | 0.00 | 0.00 | 65 | 980.1 |
| 20260507035702 | 42 | 233 | 1.0 | 3.0 | 0.00 | 0.00 | 0.00 | 65 | 980.1 |
| 20260507035201 | 42 | 0 | 0.0 | 0.0 | 0.00 | 0.00 | 0.00 | 67 | 980.2 |
| 20260507034701 | 42 | 221 | 1.0 | 2.0 | 0.00 | 0.00 | 0.00 | 68 | 980.2 |
| 20260507033639 | 41 | 0 | 0.0 | 0.0 | 0.00 | 0.00 | 0.00 | 66 | 980.1 |
| 20260507033139 | 41 | 220 | 1.0 | 2.0 | 0.00 | 0.00 | 0.00 | 65 | 980.2 |
| 20260507032116 | 41 | 0 | 0.0 | 0.0 | 0.00 | 0.00 | 0.00 | 68 | 980.2 |
| 20260507031615 | 41 | 0 | 0.0 | 0.0 | 0.00 | 0.00 | 0.00 | 67 | 980.3 |
| 20260507031115 | 41 | 0 | 0.0 | 0.0 | 0.00 | 0.00 | 0.00 | 68 | 980.3 |
| 20260507030054 | 41 | 0 | 0.0 | 0.0 | 0.00 | 0.00 | 0.00 | 67 | 980.4 |
| 20260507025554 | 41 | 0 | 0.0 | 0.0 | 0.00 | 0.00 | 0.00 | 67 | 980.3 |
| 20260507025053 | 41 | 0 | 0.0 | 0.0 | 0.00 | 0.00 | 0.00 | 67 | 980.3 |
| 20260507024030 | 41 | 0 | 0.0 | 0.0 | 0.00 | 0.00 | 0.00 | 65 | 980.2 |
| 20260507023530 | 41 | 193 | 1.0 | 2.0 | 0.00 | 0.00 | 0.00 | 64 | 980.2 |
| 20260507022507 | 41 | 0 | 0.0 | 0.0 | 0.00 | 0.00 | 0.00 | 65 | 980.3 |
| 20260507021445 | 41 | 0 | 0.0 | 0.0 | 0.00 | 0.00 | 0.00 | 66 | 980.3 |
| 20260507020945 | 41 | 0 | 0.0 | 0.0 | 0.00 | 0.00 | 0.00 | 63 | 980.2 |
| 20260507015402 | 41 | 0 | 0.0 | 0.0 | 0.00 | 0.00 | 0.00 | 64 | 980.3 |
| 20260507014902 | 42 | 0 | 0.0 | 0.0 | 0.00 | 0.00 | 0.00 | 63 | 980.2 |
| 20260507013840 | 42 | 0 | 0.0 | 0.0 | 0.00 | 0.00 | 0.00 | 59 | 980.2 |
| 20260507012819 | 42 | 215 | 0.0 | 1.0 | 0.00 | 0.00 | 0.00 | 60 | 980.2 |
| 20260507012319 | 43 | 0 | 0.0 | 0.0 | 0.00 | 0.00 | 0.00 | 59 | 980.2 |
| 20260507011818 | 43 | 0 | 0.0 | 0.0 | 0.00 | 0.00 | 0.00 | 60 | 980.2 |
| 20260507011317 | 43 | 0 | 0.0 | 0.0 | 0.00 | 0.00 | 0.00 | 59 | 980.3 |
| 20260507010256 | 44 | 255 | 1.0 | 2.0 | 0.00 | 0.00 | 0.00 | 55 | 980.4 |
| 20260507005756 | 44 | 229 | 1.0 | 2.0 | 0.00 | 0.00 | 0.00 | 53 | 980.3 |
| 20260507005256 | 44 | 219 | 2.0 | 2.0 | 0.00 | 0.00 | 0.00 | 52 | 980.3 |
| 20260507004755 | 44 | 238 | 1.0 | 2.0 | 0.00 | 0.00 | 0.00 | 51 | 980.2 |
| 20260507004255 | 45 | 246 | 2.0 | 2.0 | 0.00 | 0.00 | 0.00 | 50 | 980.3 |
| 20260507003755 | 45 | 269 | 1.0 | 2.0 | 0.00 | 0.00 | 0.00 | 50 | 980.2 |
| 20260507003254 | 45 | 262 | 2.0 | 2.0 | 0.00 | 0.00 | 0.00 | 49 | 980.1 |
| 20260507002754 | 46 | 258 | 1.0 | 2.0 | 0.00 | 0.00 | 0.00 | 48 | 980.1 |
| 20260507002254 | 46 | 275 | 1.0 | 1.0 | 0.00 | 0.00 | 0.00 | 47 | 980.0 |
| 20260507001754 | 46 | 310 | 2.0 | 3.0 | 0.00 | 0.00 | 0.00 | 47 | 980.0 |
| 20260507001254 | 46 | 302 | 2.0 | 3.0 | 0.00 | 0.00 | 0.00 | 45 | 979.9 |
| 20260507000754 | 47 | 325 | 2.0 | 3.0 | 0.00 | 0.00 | 0.00 | 44 | 979.8 |
| 20260507000253 | 47 | 332 | 4.0 | 5.0 | 0.00 | 0.00 | 0.00 | 43 | 979.7 |
| 20260506235231 | 48 | 338 | 3.0 | 5.0 | 0.00 | 0.00 | 0.00 | 43 | 979.7 |
| 20260506233649 | 47 | 326 | 4.0 | 6.0 | 0.00 | 0.00 | 0.00 | 42 | 979.8 |
| 20260506233148 | 47 | 334 | 3.0 | 5.0 | 0.00 | 0.00 | 0.00 | 42 | 979.8 |
| 20260506232647 | 48 | 333 | 6.0 | 7.0 | 0.00 | 0.00 | 0.00 | 41 | 979.7 |
| 20260506231626 | 48 | 10 | 4.0 | 9.0 | 0.00 | 0.00 | 0.00 | 41 | 979.8 |
| 20260506225522 | 49 | 332 | 7.0 | 9.0 | 0.00 | 0.00 | 0.00 | 40 | 979.8 |
| 20260506225021 | 49 | 352 | 7.0 | 8.0 | 0.00 | 0.00 | 0.00 | 38 | 979.8 |
| 20260506224521 | 49 | 317 | 4.0 | 8.0 | 0.00 | 0.00 | 0.00 | 40 | 979.9 |
| 20260506224021 | 48 | 340 | 5.0 | 7.0 | 0.00 | 0.00 | 0.00 | 40 | 979.9 |
| 20260506223520 | 48 | 317 | 5.0 | 8.0 | 0.00 | 0.00 | 0.00 | 40 | 979.9 |
| 20260506222459 | 48 | 352 | 5.0 | 7.0 | 0.00 | 0.00 | 0.00 | 40 | 979.9 |
| 20260506221959 | 48 | 332 | 3.0 | 6.0 | 0.00 | 0.00 | 0.00 | 41 | 979.9 |
| 20260506221458 | 48 | 340 | 8.0 | 10.0 | 0.00 | 0.00 | 0.00 | 40 | 979.9 |
| 20260506220958 | 48 | 336 | 7.0 | 13.0 | 0.00 | 0.00 | 0.00 | 40 | 979.8 |
| 20260506220458 | 49 | 337 | 7.0 | 8.0 | 0.00 | 0.00 | 0.00 | 38 | 979.8 |
| 20260506215958 | 49 | 309 | 7.0 | 9.0 | 0.00 | 0.00 | 0.00 | 38 | 979.8 |
| 20260506215457 | 49 | 352 | 4.0 | 8.0 | 0.00 | 0.00 | 0.00 | 39 | 979.7 |
| 20260506214957 | 48 | 345 | 7.0 | 11.0 | 0.00 | 0.00 | 0.00 | 38 | 979.6 |
| 20260506214457 | 48 | 3 | 4.0 | 8.0 | 0.00 | 0.00 | 0.00 | 39 | 979.5 |
| 20260506213957 | 49 | 331 | 4.0 | 7.0 | 0.00 | 0.00 | 0.00 | 38 | 979.5 |
| 20260506212935 | 48 | 331 | 5.0 | 9.0 | 0.00 | 0.00 | 0.00 | 38 | 979.5 |
| 20260506212435 | 49 | 339 | 7.0 | 11.0 | 0.00 | 0.00 | 0.00 | 37 | 979.5 |
| 20260506211414 | 48 | 9 | 5.0 | 9.0 | 0.00 | 0.00 | 0.00 | 40 | 979.5 |
| 20260506210913 | 48 | 350 | 6.0 | 11.0 | 0.00 | 0.00 | 0.00 | 40 | 979.5 |
| 20260506210412 | 48 | 11 | 5.0 | 9.0 | 0.00 | 0.00 | 0.00 | 43 | 979.3 |
| 20260506205912 | 48 | 359 | 6.0 | 8.0 | 0.00 | 0.00 | 0.00 | 43 | 979.3 |
| 20260506204850 | 47 | 340 | 6.0 | 9.0 | 0.00 | 0.00 | 0.00 | 43 | 979.2 |
| 20260506204350 | 47 | 349 | 9.0 | 12.0 | 0.00 | 0.00 | 0.00 | 43 | 979.2 |
| 20260506203849 | 47 | 341 | 8.0 | 10.0 | 0.00 | 0.00 | 0.00 | 45 | 979.2 |
| 20260506203349 | 47 | 338 | 8.0 | 12.0 | 0.00 | 0.00 | 0.00 | 46 | 979.2 |
| 20260506202849 | 47 | 341 | 7.0 | 11.0 | 0.00 | 0.00 | 0.00 | 47 | 979.3 |
| 20260506202348 | 47 | 323 | 7.0 | 9.0 | 0.00 | 0.00 | 0.00 | 47 | 979.3 |
| 20260506201326 | 47 | 334 | 7.0 | 9.0 | 0.00 | 0.00 | 0.00 | 48 | 979.3 |
| 20260506200826 | 47 | 350 | 5.0 | 9.0 | 0.00 | 0.00 | 0.00 | 49 | 979.3 |
| 20260506195805 | 47 | 347 | 8.0 | 10.0 | 0.00 | 0.00 | 0.00 | 48 | 979.3 |
| 20260506195306 | 47 | 348 | 5.0 | 9.0 | 0.00 | 0.00 | 0.00 | 49 | 979.3 |
| 20260506194804 | 47 | 351 | 5.0 | 8.0 | 0.00 | 0.00 | 0.00 | 49 | 979.2 |
| 20260506194304 | 47 | 336 | 4.0 | 6.0 | 0.00 | 0.00 | 0.00 | 49 | 979.2 |
| 20260506193803 | 47 | 2 | 5.0 | 9.0 | 0.00 | 0.00 | 0.00 | 50 | 979.2 |
| 20260506193303 | 47 | 317 | 9.0 | 14.0 | 0.00 | 0.00 | 0.00 | 48 | 979.1 |
| 20260506192803 | 47 | 341 | 10.0 | 13.0 | 0.00 | 0.00 | 0.00 | 47 | 979.2 |
| 20260506192305 | 47 | 353 | 6.0 | 8.0 | 0.00 | 0.00 | 0.00 | 49 | 979.1 |
| 20260506191803 | 47 | 343 | 8.0 | 11.0 | 0.00 | 0.00 | 0.00 | 49 | 979.1 |
| 20260506191302 | 47 | 348 | 7.0 | 10.0 | 0.00 | 0.00 | 0.00 | 50 | 979.1 |
| 20260506190801 | 47 | 355 | 6.0 | 9.0 | 0.00 | 0.00 | 0.00 | 50 | 979.3 |
| 20260506190300 | 47 | 338 | 9.0 | 11.0 | 0.00 | 0.00 | 0.00 | 49 | 979.3 |
| 20260506185800 | 48 | 333 | 8.0 | 12.0 | 0.00 | 0.00 | 0.00 | 50 | 979.2 |
| 20260506185300 | 47 | 345 | 7.0 | 12.0 | 0.00 | 0.00 | 0.00 | 50 | 979.3 |
| 20260506184800 | 48 | 347 | 9.0 | 12.0 | 0.00 | 0.00 | 0.00 | 50 | 979.3 |
| 20260506184259 | 47 | 340 | 8.0 | 12.0 | 0.00 | 0.00 | 0.00 | 50 | 979.2 |
| 20260506183759 | 48 | 343 | 9.0 | 15.0 | 0.00 | 0.00 | 0.00 | 51 | 979.0 |
| 20260506183259 | 48 | 334 | 8.0 | 11.0 | 0.00 | 0.00 | 0.00 | 51 | 979.0 |
| 20260506182759 | 48 | 322 | 7.0 | 9.0 | 0.00 | 0.00 | 0.00 | 51 | 978.9 |
| 20260506182258 | 48 | 323 | 9.0 | 12.0 | 0.00 | 0.00 | 0.00 | 50 | 978.8 |
| 20260506181757 | 49 | 333 | 7.0 | 13.0 | 0.00 | 0.00 | 0.00 | 50 | 978.6 |
| 20260506181257 | 49 | 333 | 8.0 | 12.0 | 0.00 | 0.00 | 0.00 | 49 | 978.6 |
| 20260506180757 | 49 | 8 | 4.0 | 9.0 | 0.00 | 0.00 | 0.00 | 49 | 978.5 |
| 20260506180256 | 49 | 336 | 8.0 | 10.0 | 0.00 | 0.00 | 0.00 | 49 | 978.4 |
| 20260506175755 | 49 | 338 | 6.0 | 12.0 | 0.00 | 0.00 | 0.00 | 50 | 978.4 |
| 20260506175255 | 49 | 340 | 5.0 | 8.0 | 0.00 | 0.00 | 0.00 | 49 | 978.3 |
| 20260506174755 | 49 | 6 | 6.0 | 12.0 | 0.00 | 0.00 | 0.00 | 50 | 978.4 |
| 20260506174255 | 50 | 0 | 8.0 | 12.0 | 0.00 | 0.00 | 0.00 | 51 | 978.5 |
| 20260506172712 | 50 | 16 | 7.0 | 11.0 | 0.00 | 0.00 | 0.00 | 49 | 978.4 |
| 20260506172212 | 50 | 343 | 6.0 | 9.0 | 0.00 | 0.00 | 0.00 | 52 | 978.3 |
| 20260506171151 | 50 | 353 | 6.0 | 9.0 | 0.00 | 0.00 | 0.00 | 51 | 978.4 |
| 20260506170650 | 50 | 344 | 9.0 | 12.0 | 0.00 | 0.00 | 0.00 | 52 | 978.2 |
| 20260506170150 | 50 | 337 | 6.0 | 11.0 | 0.00 | 0.00 | 0.00 | 53 | 978.3 |
| 20260506165129 | 50 | 346 | 8.0 | 13.0 | 0.00 | 0.00 | 0.00 | 52 | 978.5 |
| 20260506164628 | 50 | 351 | 5.0 | 8.0 | 0.00 | 0.00 | 0.00 | 55 | 978.4 |
| 20260506164128 | 50 | 339 | 8.0 | 11.0 | 0.00 | 0.00 | 0.00 | 56 | 978.6 |
| 20260506163627 | 50 | 346 | 8.0 | 12.0 | 0.00 | 0.00 | 0.00 | 56 | 978.6 |